SCP
0 0 -0 -0 -0 -0 -0 -0 -0 -0 -0 -0 -0 -0 -0 -0 0 -0 -0 0 -0 -0 0 -0 -0 -0 -0 -0 -0 -0 -0 -0 0 0 0 0 0 0 0 0 0 0 0
0 0 -0 -0 -0 -0 -0 -0 -0 -0 -0 -0 -0 -0 -0 -0 0 0 0 -0 -0 -0 -0 -0 0 -0 -0 -0 -0 -0 0 0 0 0 0 0 0 0 0 0 0 0 0
-0 0 0 -0 -0 -0 0 0 -0 -0 -0 -0 -0 -0 -0 -0 -0 -0 -0 -0 -0 -0 -0 -0 -0 -0 -0 0 0 0 0 0 0 0 0 0 0 0 0 0 0 0 0
-0 0 0 -0 0 -0 0 0 0 -0 -0 -0 -0 -0 -0 -0 -0 -0 -0 -0 -0 -0 -0 -0 0 -0 0 0 0 0 0 0 0 0 0 0 0 0 0 0 0 0 0
-0 -0 0 -0 -0 -0 -0 -0 0 -0 -0 -0 -0 -0 -0 -0 -0 -0 -0 -0 -0 0 0 0 0 0 0 0 0 0 0 0 0 0 0 0 0 0 0 0 0 0 0
-0 -0 -0 -0 -0 -0 -0 -0 -0 -0 -0 -0 -0 -0 -0 -0 -0 -0 -0 0 0 0 0 0 0 0 0 0 0 0 0 0 0 0 0 0 0 0 0 0 0 0 0
0 -0 -0 -0 -0 -0 -0 -0 -0 -0 -0 -0 -0 -0 -0 -0 -0 -0 -0 -0 0 0 0 0 0 0 0 0 0 0 0 0 0 0 0 0 0 0 0 0 0 0 0
-0 -0 0 -0 -0 -0 -0 -0 -0 -0 -0 -0 -0 -0 -0 -0 -0 -0 -0 -0 -0 0 0 0 0 0 0 0 0 0 0 0 0 0 0 0 0 0 0 0 0 0 0
0 0 -0 -0 -0 -0 -0 -0 -0 -0 -0 -0 -0 -0 -0 -0 -0 -0 -0 -0 -0 0 0 0 0 0 0 0 0 0 0 0 0 0 0 0 0 0 0 0 0 0 0
0 0 0 0 -0 -0 -0 -0 -0 -0 -0 -0 -0 -0 -0 -0 -0 -0 -0 0 0 0 0 0 0 0 0 0 0 0 0 0 0 0 0 0 0 0 0 0 0 0 0
0 0 0 0 0 0 0 -0 -0 -0 -0 -0 -0 -0 0 0 0 0 0 0 0 0 0 0 0 0 0 0 0 0 0 0 0 0 0 0 0 0 0 0 0 0 0
0 0 0 0 0 0 0 0 0 0 0 0 0 0 0 0 0 0 0 0 0 0 0 0 0 0 0 0 0 0 0 0 0 0 0 0 0 0 0 0 0 0 0
0 0 0 0 0 0 0 0 0 0 0 0 0 0 0 0 0 0 0 0 0 0 0 0 0 0 0 0 0 0 0 0 0 0 0 0 0 0 0 0 0 0 0
0 0 0 0 0 0 0 0 0 0 0 0 0 0 0 0 0 0 0 0 0 0 0 0 0 0 0 0 0 0 0 0 0 0 0 0 0 0 0 0 0 0 0
0 0 0 0 0 0 0 0 0 0 0 0 0 0 0 0 0 0 0 0 0 0 0 0 0 0 0 0 0 0 0 0 0 0 0 0 0 0 0 0 0 0 0
0 0 0 0 0 0 0 0 0 0 0 0 0 0 0 0 0 0 0 0 0 0 0 0 0 0 0 0 0 0 0 0 0 0 0 0 0 0 0 0 0 0 0
0 0 0 0 0 0 0 0 0 0 0 0 0 0 0 0 0 0 0 0 0 0 0 0 0 0 0 0 0 0 0 0 0 0 0 0 0 0 0 0 0 0 0
0 0 0 0 0 0 0 0 0 0 0 0 0 0 0 0 0 0 0 0 0 0 0 0 0 0 0 0 0 0 0 0 0 0 0 0 0 0 0 0 0 0 0
0 0 0 0 0 0 0 0 0 0 0 0 0 0 0 0 0 0 0 0 0 0 0 0 0 0 0 0 0 0 0 0 0 0 0 0 0 0 0 0 0 0 0
0 0 0 0 0 0 0 0 0 0 0 0 0 0 0 0 0 0 0 0 0 0 0 0 0 0 0 0 0 0 0 0 0 0 0 0 0 0 0 0 0 0 0
0 0 0 0 0 0 0 0 0 0 0 0 0 0 0 0 0 0 0 0 0 0 0 0 0 0 0 0 0 0 0 0 0 0 0 0 0 0 0 0 0 0 0
0 0 0 0 0 0 0 0 0 0 0 0 0 0 0 0 0 0 0 0 0 0 0 0 0 0 0 0 0 0 0 0 0 0 0 0 0 0 0 0 0 0 0
0 0 0 0 0 0 0 0 0 0 0 0 0 0 0 0 0 0 0 0 0 0 0 0 0 0 0 0 0 0 0 0 0 0 0 0 0 0 0 0 0 0 0
0 0 0 0 0 0 0 0 0 0 0 0 0 0 0 0 0 0 0 0 0 0 0 0 0 0 0 0 0 0 0 0 0 0 0 0 0 0 0 0 0 0 0
0 0 0 0 0 0 0 0 0 0 0 0 0 0 0 0 0 0 0 0 0 0 0 0 0 0 0 0 0 0 0 0 0 0 0 0 0 0 0 0 0 0 0
0 0 0 0 0 0 0 0 0 0 0 0 0 0 0 0 0 0 0 0 0 0 0 0 0 0 0 0 0 0 0 0 0 0 0 0 0 0 0 0 0 0 0
Wind_Speed_500mb
16 21 20 16 15 13 14 17 22 21 20 18 16 14 14 14 17 20 19 19 17 13 21 23 21 15 11 6 3 9 10 11 10 9 10 13 9 14 13 14 11 14 19
14 23 20 16 12 10 11 15 23 19 17 15 9 9 6 6 6 12 14 11 6 7 29 25 19 11 8 2 4 8 9 9 8 10 12 19 12 13 9 11 13 14 20
14 21 18 14 5 11 9 11 18 25 18 11 8 4 1 0 3 4 9 10 7 9 19 21 15 10 6 2 5 8 9 7 7 10 10 13 16 13 12 15 15 14 18
14 21 18 16 8 9 10 13 15 18 19 13 6 3 2 5 4 10 9 6 12 13 17 17 15 9 7 4 3 7 8 5 3 9 10 13 15 8 7 8 10 7 7
14 21 19 15 9 6 6 10 17 18 13 9 4 4 6 5 3 4 6 8 12 9 13 15 16 13 5 3 2 4 6 3 6 7 10 11 12 14 16 4 4 3 3
18 25 22 13 6 5 5 6 12 16 13 11 9 7 1 3 4 4 5 7 9 8 8 15 18 16 11 6 2 1 3 3 5 9 10 11 14 16 19 12 8 8 5
19 22 20 14 7 5 4 4 6 12 14 13 14 13 6 3 2 6 4 4 3 6 5 6 15 16 15 11 3 2 2 5 6 10 10 11 16 19 19 17 13 13 10
9 16 18 16 11 7 4 4 3 5 12 15 18 16 10 8 6 5 4 5 3 3 7 6 8 13 14 14 11 9 8 8 10 13 12 11 15 20 21 22 21 14 15
12 15 18 18 14 12 10 7 4 3 6 8 8 11 11 11 11 13 10 7 5 5 8 11 10 11 13 14 13 13 12 12 13 18 17 16 16 19 21 22 20 18 15
12 7 13 16 16 15 14 13 11 8 7 8 7 8 11 13 16 12 9 10 11 9 10 12 15 15 16 17 17 17 16 15 15 19 24 20 19 20 26 27 25 22 18
18 12 9 10 12 12 13 15 16 15 13 13 13 11 14 16 17 18 15 17 16 15 15 14 17 18 20 20 20 21 22 19 19 21 23 23 24 22 29 30 32 26 24
16 12 13 10 9 11 11 11 11 16 18 19 21 21 19 20 21 21 20 19 16 15 17 19 20 21 23 21 22 23 24 23 21 20 23 24 27 23 29 30 32 35 32
10 14 15 16 15 13 13 12 12 14 15 17 23 27 26 26 26 28 26 24 21 19 21 22 22 24 24 24 23 24 23 23 23 23 24 27 28 28 32 32 34 35 35
16 13 16 17 17 16 19 19 18 21 21 21 19 23 29 30 31 31 31 29 28 25 24 24 25 24 24 24 25 24 25 26 27 28 30 32 33 33 36 36 36 37 40
23 19 20 21 21 19 23 25 28 30 31 29 29 29 29 30 33 35 35 35 34 31 32 31 31 29 28 28 28 29 29 30 31 32 34 34 36 38 40 41 42 42 43
28 30 24 25 23 26 31 31 32 33 34 37 39 38 38 37 35 36 38 40 41 38 37 38 37 35 34 33 33 32 33 34 34 36 37 36 35 37 40 41 43 46 47
32 24 25 31 30 31 32 34 37 39 41 42 43 43 46 46 44 42 40 41 44 43 43 42 41 41 42 40 41 38 38 38 40 39 37 35 33 35 39 42 44 45 48
31 31 34 42 42 44 43 43 44 46 49 51 50 47 49 52 51 49 49 49 44 46 46 45 44 45 46 46 45 44 45 45 44 43 42 40 39 41 45 48 50 52 52
36 41 43 49 50 54 55 56 57 58 59 61 54 51 49 50 53 56 57 54 50 48 48 48 49 48 49 46 44 45 45 45 46 45 43 41 43 43 42 35 35 41 43
43 42 48 51 50 51 51 55 63 69 70 65 58 52 48 46 50 53 57 58 58 58 55 51 51 49 50 50 49 50 50 49 48 48 46 44 38 35 36 44 47 46 47
43 46 52 52 54 55 58 67 74 71 68 63 53 47 46 43 48 52 54 56 65 58 57 56 53 53 53 52 54 58 57 54 51 52 48 41 37 36 38 34 39 40 41
47 51 51 53 53 56 66 60 58 55 56 55 46 35 37 36 44 47 48 45 57 64 62 57 57 56 57 53 55 59 51 47 54 53 43 40 30 32 30 37 34 43 34
50 49 49 50 51 50 49 48 45 43 42 41 35 34 38 40 44 47 38 39 47 53 58 54 54 55 56 52 51 49 20 22 35 34 34 27 17 24 26 31 32 29 28
46 46 48 47 42 45 43 41 40 34 33 39 38 35 35 40 42 43 41 40 38 42 49 62 46 50 45 41 38 36 38 48 8 11 18 13 25 17 24 34 34 30 24
45 44 41 39 41 40 36 35 33 28 30 36 37 40 43 43 43 48 45 43 38 39 39 44 50 51 51 33 31 29 22 18 23 13 23 18 26 27 20 28 37 37 33
42 39 36 37 35 32 30 28 24 22 29 33 32 34 38 37 39 44 44 35 30 27 32 32 33 36 36 30 31 29 20 23 25 20 24 30 32 26 35 28 32 33 34
Wind_Direction_500mb
172 168 164 146 123 103 106 121 123 125 128 127 114 106 118 129 146 146 147 144 146 144 151 121 113 133 125 124 73 33 24 23 30 29 42 45 51 82 68 54 61 76 81
166 167 165 154 129 109 115 128 134 134 137 155 130 119 113 108 132 168 178 188 197 87 155 155 138 147 154 105 12 16 22 30 37 44 41 37 54 82 68 54 66 66 93
176 166 162 159 147 114 118 132 146 144 147 159 145 131 167 338 125 153 170 184 180 148 147 163 169 147 149 118 46 34 36 46 36 41 31 27 15 86 72 73 65 70 106
166 165 164 156 143 107 125 144 147 157 183 197 200 209 290 217 150 123 143 161 166 159 145 148 137 130 125 133 46 46 38 75 22 345 359 14 29 38 85 82 101 111 75
167 166 165 164 128 103 113 148 159 161 189 192 197 144 84 98 99 104 132 145 150 157 163 162 149 140 155 238 101 41 37 57 78 18 343 355 11 6 340 290 268 104 115
161 169 169 168 143 122 125 153 175 186 192 180 177 212 99 101 75 89 110 164 180 186 165 182 177 173 187 225 245 151 7 346 11 1 27 348 343 347 355 323 308 228 211
161 171 160 174 170 146 129 142 171 192 190 174 184 211 231 193 23 55 63 24 250 212 210 165 202 207 227 255 331 97 38 321 315 326 344 357 340 339 347 348 309 267 243
191 192 173 181 187 187 176 162 150 178 194 195 195 216 211 213 235 293 341 356 0 242 242 235 209 222 240 267 261 275 286 292 279 293 303 321 326 326 332 344 350 296 266
216 211 193 193 199 203 205 202 201 182 200 208 218 222 218 217 229 244 253 289 300 263 245 256 246 238 252 267 277 280 282 278 275 273 288 301 310 310 319 331 338 329 287
213 204 198 201 208 214 219 219 220 226 230 235 239 243 237 239 239 252 254 265 276 279 258 259 262 261 261 264 268 275 277 276 271 268 278 288 292 305 312 319 329 328 313
218 224 215 192 192 205 215 222 226 230 236 244 255 253 252 245 246 257 265 260 265 269 271 273 276 277 275 278 277 277 277 278 274 270 270 280 289 298 305 310 315 314 311
218 231 240 238 230 222 220 224 227 234 244 249 251 254 252 251 249 253 258 261 261 268 275 282 283 283 282 285 280 282 283 275 276 276 269 275 285 290 292 299 302 305 302
237 244 248 249 250 254 253 252 254 257 261 263 257 256 254 252 252 253 254 255 259 267 277 283 288 284 284 284 285 282 283 280 280 281 279 278 285 289 287 287 291 292 285
234 241 244 245 251 264 271 277 277 276 276 273 276 266 262 258 256 256 257 258 261 264 273 274 275 278 278 280 283 284 287 287 291 293 288 286 286 286 284 283 282 283 279
247 252 247 246 255 265 272 281 284 284 280 280 272 269 268 266 262 261 263 262 264 268 273 273 272 273 275 277 278 281 284 291 297 297 295 292 290 288 286 286 284 280 278
261 258 255 257 273 284 288 289 291 289 290 283 279 275 272 270 269 266 265 267 268 269 270 272 274 275 276 276 277 281 288 291 293 293 293 292 292 293 293 292 291 289 283
260 253 263 284 283 278 285 288 291 295 294 290 289 284 275 272 271 272 271 269 269 268 269 271 273 276 278 280 281 284 286 288 288 289 288 288 289 291 295 296 294 293 293
247 248 253 258 262 264 265 272 275 279 281 283 284 287 282 274 273 271 269 267 269 262 262 265 270 274 276 276 279 281 283 284 285 286 286 289 294 300 300 295 294 293 292
242 245 254 263 262 261 263 267 273 276 276 277 274 276 281 275 266 263 265 266 266 271 264 261 263 265 272 274 279 281 280 280 284 285 290 296 300 305 311 322 315 301 299
243 253 264 266 257 252 256 265 272 274 274 271 267 268 274 273 262 260 263 263 263 265 269 270 266 266 269 276 279 282 284 284 286 288 290 294 301 303 302 301 302 302 302
253 263 264 254 249 257 266 273 274 272 270 268 263 265 274 269 266 263 265 265 263 262 265 267 269 267 270 274 278 282 286 284 283 287 290 292 291 293 295 298 298 298 303
255 263 258 255 262 270 275 272 273 273 268 266 266 266 270 264 261 268 266 267 266 264 264 266 265 266 266 271 272 280 284 286 289 287 284 278 281 285 287 303 304 313 315
248 252 255 262 270 271 273 274 276 275 266 261 253 245 254 253 253 257 257 269 259 260 263 265 265 265 267 270 273 270 273 281 286 266 256 278 295 313 316 318 321 326 333
238 244 255 265 267 277 277 280 282 275 255 249 239 240 252 256 257 259 269 274 268 267 265 260 262 261 265 271 274 278 276 287 322 322 305 294 298 288 316 314 320 328 318
242 246 255 260 274 275 277 282 282 272 248 241 234 242 251 256 260 262 259 261 258 262 255 253 256 264 263 253 248 264 258 264 281 288 287 291 303 317 321 329 311 314 309
238 246 254 270 268 269 276 280 274 255 242 235 238 244 253 254 250 255 248 245 250 238 269 275 272 272 269 264 262 269 256 259 280 281 285 290 297 309 318 301 302 297 299
Wind_Speed_850mb
16 21 20 16 15 13 14 17 22 21 20 18 16 14 14 14 17 20 19 19 17 13 21 23 21 15 11 6 3 9 10 11 10 9 10 13 9 14 13 14 11 14 19
14 23 20 16 12 10 11 15 23 19 17 15 9 9 6 6 6 12 14 11 6 7 29 25 19 11 8 2 4 8 9 9 8 10 12 19 12 13 9 11 13 14 20
14 21 18 14 5 11 9 11 18 25 18 11 8 4 1 0 3 4 9 10 7 9 19 21 15 10 6 2 5 8 9 7 7 10 10 13 16 13 12 15 15 14 18
14 21 18 16 8 9 10 13 15 18 19 13 6 3 2 5 4 10 9 6 12 13 17 17 15 9 7 4 3 7 8 5 3 9 10 13 15 8 7 8 10 7 7
14 21 19 15 9 6 6 10 17 18 13 9 4 4 6 5 3 4 6 8 12 9 13 15 16 13 5 3 2 4 6 3 6 7 10 11 12 14 16 4 4 3 3
18 25 22 13 6 5 5 6 12 16 13 11 9 7 1 3 4 4 5 7 9 8 8 15 18 16 11 6 2 1 3 3 5 9 10 11 14 16 19 12 8 8 5
19 22 20 14 7 5 4 4 6 12 14 13 14 13 6 3 2 6 4 4 3 6 5 6 15 16 15 11 3 2 2 5 6 10 10 11 16 19 19 17 13 13 10
9 16 18 16 11 7 4 4 3 5 12 15 18 16 10 8 6 5 4 5 3 3 7 6 8 13 14 14 11 9 8 8 10 13 12 11 15 20 21 22 21 14 15
12 15 18 18 14 12 10 7 4 3 6 8 8 11 11 11 11 13 10 7 5 5 8 11 10 11 13 14 13 13 12 12 13 18 17 16 16 19 21 22 20 18 15
12 7 13 16 16 15 14 13 11 8 7 8 7 8 11 13 16 12 9 10 11 9 10 12 15 15 16 17 17 17 16 15 15 19 24 20 19 20 26 27 25 22 18
18 12 9 10 12 12 13 15 16 15 13 13 13 11 14 16 17 18 15 17 16 15 15 14 17 18 20 20 20 21 22 19 19 21 23 23 24 22 29 30 32 26 24
16 12 13 10 9 11 11 11 11 16 18 19 21 21 19 20 21 21 20 19 16 15 17 19 20 21 23 21 22 23 24 23 21 20 23 24 27 23 29 30 32 35 32
10 14 15 16 15 13 13 12 12 14 15 17 23 27 26 26 26 28 26 24 21 19 21 22 22 24 24 24 23 24 23 23 23 23 24 27 28 28 32 32 34 35 35
16 13 16 17 17 16 19 19 18 21 21 21 19 23 29 30 31 31 31 29 28 25 24 24 25 24 24 24 25 24 25 26 27 28 30 32 33 33 36 36 36 37 40
23 19 20 21 21 19 23 25 28 30 31 29 29 29 29 30 33 35 35 35 34 31 32 31 31 29 28 28 28 29 29 30 31 32 34 34 36 38 40 41 42 42 43
28 30 24 25 23 26 31 31 32 33 34 37 39 38 38 37 35 36 38 40 41 38 37 38 37 35 34 33 33 32 33 34 34 36 37 36 35 37 40 41 43 46 47
32 24 25 31 30 31 32 34 37 39 41 42 43 43 46 46 44 42 40 41 44 43 43 42 41 41 42 40 41 38 38 38 40 39 37 35 33 35 39 42 44 45 48
31 31 34 42 42 44 43 43 44 46 49 51 50 47 49 52 51 49 49 49 44 46 46 45 44 45 46 46 45 44 45 45 44 43 42 40 39 41 45 48 50 52 52
36 41 43 49 50 54 55 56 57 58 59 61 54 51 49 50 53 56 57 54 50 48 48 48 49 48 49 46 44 45 45 45 46 45 43 41 43 43 42 35 35 41 43
43 42 48 51 50 51 51 55 63 69 70 65 58 52 48 46 50 53 57 58 58 58 55 51 51 49 50 50 49 50 50 49 48 48 46 44 38 35 36 44 47 46 47
43 46 52 52 54 55 58 67 74 71 68 63 53 47 46 43 48 52 54 56 65 58 57 56 53 53 53 52 54 58 57 54 51 52 48 41 37 36 38 34 39 40 41
47 51 51 53 53 56 66 60 58 55 56 55 46 35 37 36 44 47 48 45 57 64 62 57 57 56 57 53 55 59 51 47 54 53 43 40 30 32 30 37 34 43 34
50 49 49 50 51 50 49 48 45 43 42 41 35 34 38 40 44 47 38 39 47 53 58 54 54 55 56 52 51 49 20 22 35 34 34 27 17 24 26 31 32 29 28
46 46 48 47 42 45 43 41 40 34 33 39 38 35 35 40 42 43 41 40 38 42 49 62 46 50 45 41 38 36 38 48 8 11 18 13 25 17 24 34 34 30 24
45 44 41 39 41 40 36 35 33 28 30 36 37 40 43 43 43 48 45 43 38 39 39 44 50 51 51 33 31 29 22 18 23 13 23 18 26 27 20 28 37 37 33
42 39 36 37 35 32 30 28 24 22 29 33 32 34 38 37 39 44 44 35 30 27 32 32 33 36 36 30 31 29 20 23 25 20 24 30 32 26 35 28 32 33 34
Wind_Direction_850mb
172 168 164 146 123 103 106 121 123 125 128 127 114 106 118 129 146 146 147 144 146 144 151 121 113 133 125 124 73 33 24 23 30 29 42 45 51 82 68 54 61 76 81
166 167 165 154 129 109 115 128 134 134 137 155 130 119 113 108 132 168 178 188 197 87 155 155 138 147 154 105 12 16 22 30 37 44 41 37 54 82 68 54 66 66 93
176 166 162 159 147 114 118 132 146 144 147 159 145 131 167 338 125 153 170 184 180 148 147 163 169 147 149 118 46 34 36 46 36 41 31 27 15 86 72 73 65 70 106
166 165 164 156 143 107 125 144 147 157 183 197 200 209 290 217 150 123 143 161 166 159 145 148 137 130 125 133 46 46 38 75 22 345 359 14 29 38 85 82 101 111 75
167 166 165 164 128 103 113 148 159 161 189 192 197 144 84 98 99 104 132 145 150 157 163 162 149 140 155 238 101 41 37 57 78 18 343 355 11 6 340 290 268 104 115
161 169 169 168 143 122 125 153 175 186 192 180 177 212 99 101 75 89 110 164 180 186 165 182 177 173 187 225 245 151 7 346 11 1 27 348 343 347 355 323 308 228 211
161 171 160 174 170 146 129 142 171 192 190 174 184 211 231 193 23 55 63 24 250 212 210 165 202 207 227 255 331 97 38 321 315 326 344 357 340 339 347 348 309 267 243
191 192 173 181 187 187 176 162 150 178 194 195 195 216 211 213 235 293 341 356 0 242 242 235 209 222 240 267 261 275 286 292 279 293 303 321 326 326 332 344 350 296 266
216 211 193 193 199 203 205 202 201 182 200 208 218 222 218 217 229 244 253 289 300 263 245 256 246 238 252 267 277 280 282 278 275 273 288 301 310 310 319 331 338 329 287
213 204 198 201 208 214 219 219 220 226 230 235 239 243 237 239 239 252 254 265 276 279 258 259 262 261 261 264 268 275 277 276 271 268 278 288 292 305 312 319 329 328 313
218 224 215 192 192 205 215 222 226 230 236 244 255 253 252 245 246 257 265 260 265 269 271 273 276 277 275 278 277 277 277 278 274 270 270 280 289 298 305 310 315 314 311
218 231 240 238 230 222 220 224 227 234 244 249 251 254 252 251 249 253 258 261 261 268 275 282 283 283 282 285 280 282 283 275 276 276 269 275 285 290 292 299 302 305 302
237 244 248 249 250 254 253 252 254 257 261 263 257 256 254 252 252 253 254 255 259 267 277 283 288 284 284 284 285 282 283 280 280 281 279 278 285 289 287 287 291 292 285
234 241 244 245 251 264 271 277 277 276 276 273 276 266 262 258 256 256 257 258 261 264 273 274 275 278 278 280 283 284 287 287 291 293 288 286 286 286 284 283 282 283 279
247 252 247 246 255 265 272 281 284 284 280 280 272 269 268 266 262 261 263 262 264 268 273 273 272 273 275 277 278 281 284 291 297 297 295 292 290 288 286 286 284 280 278
261 258 255 257 273 284 288 289 291 289 290 283 279 275 272 270 269 266 265 267 268 269 270 272 274 275 276 276 277 281 288 291 293 293 293 292 292 293 293 292 291 289 283
260 253 263 284 283 278 285 288 291 295 294 290 289 284 275 272 271 272 271 269 269 268 269 271 273 276 278 280 281 284 286 288 288 289 288 288 289 291 295 296 294 293 293
247 248 253 258 262 264 265 272 275 279 281 283 284 287 282 274 273 271 269 267 269 262 262 265 270 274 276 276 279 281 283 284 285 286 286 289 294 300 300 295 294 293 292
242 245 254 263 262 261 263 267 273 276 276 277 274 276 281 275 266 263 265 266 266 271 264 261 263 265 272 274 279 281 280 280 284 285 290 296 300 305 311 322 315 301 299
243 253 264 266 257 252 256 265 272 274 274 271 267 268 274 273 262 260 263 263 263 265 269 270 266 266 269 276 279 282 284 284 286 288 290 294 301 303 302 301 302 302 302
253 263 264 254 249 257 266 273 274 272 270 268 263 265 274 269 266 263 265 265 263 262 265 267 269 267 270 274 278 282 286 284 283 287 290 292 291 293 295 298 298 298 303
255 263 258 255 262 270 275 272 273 273 268 266 266 266 270 264 261 268 266 267 266 264 264 266 265 266 266 271 272 280 284 286 289 287 284 278 281 285 287 303 304 313 315
248 252 255 262 270 271 273 274 276 275 266 261 253 245 254 253 253 257 257 269 259 260 263 265 265 265 267 270 273 270 273 281 286 266 256 278 295 313 316 318 321 326 333
238 244 255 265 267 277 277 280 282 275 255 249 239 240 252 256 257 259 269 274 268 267 265 260 262 261 265 271 274 278 276 287 322 322 305 294 298 288 316 314 320 328 318
242 246 255 260 274 275 277 282 282 272 248 241 234 242 251 256 260 262 259 261 258 262 255 253 256 264 263 253 248 264 258 264 281 288 287 291 303 317 321 329 311 314 309
238 246 254 270 268 269 276 280 274 255 242 235 238 244 253 254 250 255 248 245 250 238 269 275 272 272 269 264 262 269 256 259 280 281 285 290 297 309 318 301 302 297 299